This is the latest recevied weather packets stored in our database for station/object W4BOD. If no packets are shown the sender has not sent any weather packets the latest 10 day(s).
| Time | Temp. | Humidity | Pressure | Rain* | Wind** | Luminosity | Snow |
|---|---|---|---|---|---|---|---|
| 1777845506 | 21.11° C | 38% | 1016.6 hPa | 0 mm | - | 332 W/m² | - |
| 1777845204 | 21.11° C | 37% | 1016.3 hPa | 0 mm | - | 350 W/m² | - |
| 1777844901 | 21.11° C | 38% | 1016.7 hPa | 0 mm | - | 367 W/m² | - |
| 1777844598 | 21.11° C | 37% | 1016.8 hPa | 0 mm | - | 388 W/m² | - |
| 1777844296 | 21.11° C | 41% | 1016.8 hPa | 0 mm | - | 405 W/m² | - |
| 1777843994 | 21.11° C | 38% | 1017 hPa | 0 mm | - | 422 W/m² | - |
| 1777843690 | 21.11° C | 39% | 1016.9 hPa | 0 mm | - | 166 W/m² | - |
| 1777843388 | 20.56° C | 39% | 1017.3 hPa | 0 mm | - | 69 W/m² | - |
| 1777843085 | 21.11° C | 37% | 1017.3 hPa | 0 mm | - | 69 W/m² | - |
| 1777842782 | 21.67° C | 38% | 1017.3 hPa | 0 mm | - | 69 W/m² | - |
| 1777842481 | 21.67° C | 38% | 1017.3 hPa | 0 mm | - | 70 W/m² | - |
| 1777842180 | 21.11° C | 39% | 1017.4 hPa | 0 mm | - | 79 W/m² | - |
| 1777841874 | 21.11° C | 36% | 1017.9 hPa | 0 mm | - | 517 W/m² | - |
| 1777841571 | 21.11° C | 36% | 1017.7 hPa | 0 mm | - | 507 W/m² | - |
| 1777841268 | 21.11° C | 37% | 1017.8 hPa | 0 mm | - | 84 W/m² | - |
| 1777840965 | 21.67° C | 38% | 1017.8 hPa | 0 mm | - | 542 W/m² | - |
| 1777840663 | 21.11° C | 39% | 1017.9 hPa | 0 mm | - | 606 W/m² | - |
| 1777840360 | 21.11° C | 41% | 1018 hPa | 0 mm | - | 625 W/m² | - |
| 1777840057 | 20.56° C | 39% | 1018 hPa | 0 mm | - | 639 W/m² | - |
| 1777839755 | 20° C | 37% | 1018.1 hPa | 0 mm | - | 655 W/m² | - |
| 1777839452 | 20.56° C | 38% | 1018.1 hPa | 0 mm | - | 667 W/m² | - |
| 1777839150 | 21.11° C | 38% | 1018.2 hPa | 0 mm | - | 679 W/m² | - |
| 1777838846 | 20.56° C | 37% | 1018.6 hPa | 0 mm | - | 696 W/m² | - |
| 1777838542 | 21.11° C | 38% | 1018.6 hPa | 0 mm | - | 712 W/m² | - |
| 1777838239 | 20.56° C | 36% | 1018.8 hPa | 0 mm | - | 726 W/m² | - |
* Rain latest hour (hover to see other rain measurements)
** Current wind speed in m/s (hover to see current wind gust speed)